EUTE 7 WEST A (AB 7)

导读 | 豆包AI

EUTE 7 WEST A(AB 7)是欧洲卫星公司(EUTELSAT)于2011年9月24日发射的通信卫星,定点于西经7°轨道位置。该卫星作为欧洲、中东和北非地区电视广播传输的关键枢纽,为亚洲主流媒体接入欧洲市场提供信号通道,支持广播电视节目分发与交换,强化了欧亚非区域的卫星通信覆盖能力,是Eutelsat全球通信网络中重要的基础设施节点,至今仍承担区域广播传输服务。

Basic Information
目录编号:
37816
目录名称:
EUTE 7 WEST A (AB 7)
国际标识:
2011-051A
轨道中心:
EARTH
卫星名称:
EUTE 7 WEST A (AB 7)
卫星全名:
--
卫星状态:
在轨 (已飞行5332 天)
发射日期:
2011-09-24 UTC
国别 :
(EUTE)
星等 :
--
Orbit Information
数据来源 国际轨道数据 AOE轨道数据
星历时间 2026-04-30T21:18:28+0800
6小时前
查看轨道信息
2026-04-28T07:00:00+0800
2天前
查看轨道信息
半长轴 42164.644km 42164.672km
偏心率 0.0003006 0.00028
轨道倾角 0.088° 0.084°
近地点辐角 22.683° 61.041°
升交点赤经 42.067° 39.958°
平近点角 346.077° 92.624°
近地点 35773.832km 35774.728km
远地点 35799.182km 35798.342km
周期 1436.092分钟 1436.094分钟
每日圈数 1.002721 1.00272
Detailed Information
使用方式:
暂无
2D Orbit Map
3D Orbit Map
Orbit Altitude Analysis Chart
Orbit Inclination Analysis Chart
Orbit Comprehensive Analysis Chart
View Comprehensive Chart